Location: Brantley
(31.5822°N, 86.2569°W)
Time: 03:57:21
(UTC+00:00)

Vanguard 3 - Pass Details

Date: 17 February 2026
Orbit: 507 x 3205 km, 33.4° (Epoch: 7 March)

Event Time Altitude Azimuth Distance (km) Brightness Sun altitude
Rises 02:57:09 0° 282° (WNW) 3,044 10.9 -43.9°
Enters shadow 02:58:41 - 280° (W) 2,394 10.2 -44.2°
Reaches altitude 10° 02:59:48 10° 277° (W) 1,921 - -44.4°
Maximum altitude 03:03:46 49° 202° (SSW) 670 - -45.2°
Drops below altitude 10° 03:07:18 10° 126° (SE) 1,717 - -46.0°
Sets 03:09:33 0° 120° (ESE) 2,674 - -46.4°
